Weather History for KELP - June, 2014

Change the Weather History Date:

Thursday, June 5, 2014

  Actual Average Record
Temperature  
Mean Temperature 89 °F 80 °F  
Max Temperature 107 °F 94 °F 107 °F (2014)
Min Temperature 70 °F 66 °F 50 °F (1985)
Degree Days  
Heating Degree Days 0 0  
Month to date heating degree days 0 0  
Since 1 June heating degree days 0 0  
Since 1 July heating degree days 2049 2474  
Cooling Degree Days 24 15  
Month to date cooling degree days 121 72  
Year to date cooling degree days 548 449  
Since 1 June cooling degree days 121 72  
Growing Degree Days 38 (Base 50)    
Moisture  
Dew Point 17 °F    
Average Humidity 11    
Maximum Humidity 17    
Minimum Humidity 4    
Precipitation  
Precipitation 0.00 in 0.02 in 0.44 in (1972)
Month to date precipitation 0.00 0.10  
Year to date precipitation 0.64 1.92  
Snow  
Snow 0.00 in - - ()
Month to date snowfall 0.0  
Since 1 June snowfall 0.0  
Since 1 July snowfall T  
Snow Depth 0.00 in    
Sea Level Pressure  
Sea Level Pressure 29.57 in    
Wind  
Wind Speed 5 mph (NW)    
Max Wind Speed 16 mph    
Max Gust Speed 20 mph    
Visibility 10 miles    
Events      
T = Trace of Precipitation, MM = Missing Value Source: NWS Daily Summary

Daily Weather History Graph

Daily Weather History Graph

Search for Another Location

Airport or City:

Trip Planner

Search our weather history database for the weather conditions in past years. The results will help you decide how hot, cold, wet, or windy it might be!

Date:

Astronomy

Jun. 05, 2014 Rise Set
Actual Time 5:59 AM MDT 8:08 PM MDT
Civil Twilight 5:31 AM MDT 8:36 PM MDT
Nautical Twilight 4:57 AM MDT 9:10 PM MDT
Astronomical Twilight 4:21 AM MDT 9:47 PM MDT
Moon 12:58 PM MDT (6/5) 12:56 AM MDT (6/5)
Length of Visible Light 15h 04m
Length of Day
14h 08m
Waxing Crescent, 49% of the Moon is Illuminated
Jun 5
Waxing Crescent
Jun 5
First Quarter
Jun 12
Full
Jun 19
Last Quarter
Jun 27
New

Hourly Weather History & Observations

Time (MDT) Temp. Dew Point Humidity Pressure Visibility Wind Dir Wind Speed Gust Speed Precip Events Conditions
12:51 AM 91.9 °F 12.0 °F 5% 29.56 in 10.0 mi NW 5.8 mph - N/A   Clear
1:51 AM 79.0 °F 16.0 °F 9% 29.57 in 10.0 mi ESE 8.1 mph - N/A   Clear
2:51 AM 81.0 °F 18.0 °F 10% 29.57 in 10.0 mi ESE 5.8 mph - N/A   Partly Cloudy
3:51 AM 81.0 °F 21.9 °F 11% 29.57 in 10.0 mi WNW 3.5 mph - N/A   Partly Cloudy
4:51 AM 73.0 °F 19.0 °F 13% 29.58 in 10.0 mi Calm Calm - N/A   Partly Cloudy
5:51 AM 75.0 °F 19.0 °F 12% 29.59 in 10.0 mi Calm Calm - N/A   Clear
6:51 AM 73.9 °F 26.1 °F 17% 29.62 in 10.0 mi SE 9.2 mph - N/A   Clear
7:51 AM 80.1 °F 23.0 °F 12% 29.63 in 10.0 mi SSW 3.5 mph - N/A   Clear
8:51 AM 82.9 °F 23.0 °F 11% 29.64 in 10.0 mi Calm Calm - N/A   Clear
9:51 AM 90.0 °F 23.0 °F 9% 29.65 in 10.0 mi NNE 8.1 mph - N/A   Clear
10:51 AM 93.9 °F 17.1 °F 6% 29.63 in 10.0 mi NNE 8.1 mph - N/A   Partly Cloudy
11:51 AM 99.0 °F 10.9 °F 4% 29.62 in 10.0 mi NW 5.8 mph - N/A   Partly Cloudy
12:51 PM 100.0 °F 10.0 °F 4% 29.60 in 10.0 mi WSW 4.6 mph - N/A   Partly Cloudy
1:51 PM 102.0 °F 12.0 °F 4% 29.60 in 10.0 mi Calm Calm - N/A   Partly Cloudy
2:51 PM 107.1 °F 16.0 °F 4% 29.56 in 10.0 mi SW 10.4 mph - N/A   Partly Cloudy
3:51 PM 105.1 °F 15.1 °F 4% 29.54 in 10.0 mi Variable 4.6 mph - N/A   Partly Cloudy
4:51 PM 105.1 °F 15.1 °F 4% 29.53 in 10.0 mi Variable 6.9 mph - N/A   Partly Cloudy
5:51 PM 104.0 °F 12.9 °F 4% 29.52 in 10.0 mi Calm Calm - N/A   Partly Cloudy
6:51 PM 102.9 °F 14.0 °F 4% 29.51 in 10.0 mi West 12.7 mph 20.7 mph N/A   Partly Cloudy
7:51 PM 100.9 °F 16.0 °F 5% 29.51 in 10.0 mi WNW 8.1 mph - N/A   Partly Cloudy
8:51 PM 97.0 °F 17.1 °F 5% 29.52 in 10.0 mi WNW 4.6 mph - N/A   Partly Cloudy
9:51 PM 93.0 °F 19.0 °F 7% 29.53 in 10.0 mi North 6.9 mph - N/A   Clear
10:51 PM 91.0 °F 18.0 °F 7% 29.53 in 10.0 mi North 8.1 mph - N/A   Clear
11:51 PM 90.0 °F 18.0 °F 7% 29.53 in 10.0 mi North 6.9 mph - N/A   Clear